{"data":{"norad_id":56137,"epoch":"2026-09-20T00:50:35.304576Z","epoch_age_seconds":148948,"freshness":"FRESH","line1":"1 56137U 23046AX  26263.03513084  .00001063  00000+0  48170-4 0  9993","line2":"2 56137  43.0020 129.3482 0001404 266.8132  93.2559 15.27576551191928","mean_motion":15.27576551,"eccentricity":0.0001404,"inclination_deg":43.002,"raan_deg":129.3482,"arg_perigee_deg":266.8132,"mean_anomaly_deg":93.2559,"bstar":4.817e-5,"rev_number":19192,"period_min":94.266961551441,"perigee_km":482.09611162798,"apogee_km":484.02273558373,"semimajor_km":6861.1964236059,"source":"CELESTRAK","updated_at":"2026-09-21T09:00:33.389157Z"}}